DB0TGO-13 Weather Reports


time (UTC)temp
C
wind
direction
speed
KPH
gust
KPH
rain 1hr
cm
rain 24hr
cm
rain mn
cm
humidity
%
barometer
mb
20260903113009 21 220 14.5 0.0 0.00 0.00 0.00 54 1010.0
20260903111510 20 220 14.5 0.0 0.00 0.00 0.00 55 1010.5
20260903110009 20 220 12.9 0.0 0.00 0.00 0.00 55 1010.5
20260903104510 20 220 12.9 0.0 0.00 0.00 0.00 56 1010.9
20260903103010 20 220 16.1 0.0 0.00 0.00 0.00 56 1010.9
20260903101509 20 220 16.1 0.0 0.00 0.00 0.00 60 1011.2
20260903100009 20 220 12.9 0.0 0.00 0.00 0.00 60 1011.2
20260903094509 19 210 11.3 0.0 0.00 0.00 0.00 61 1011.3
20260903093009 19 210 11.3 0.0 0.00 0.00 0.00 61 1011.3
20260903091511 18 210 11.3 0.0 0.00 0.00 0.00 63 1011.6
20260903090009 18 220 12.9 0.0 0.00 0.00 0.00 63 1011.6
20260903084509 17 220 11.3 0.0 0.00 0.00 0.00 67 1011.9
20260903083009 17 220 11.3 0.0 0.00 0.00 0.00 67 1011.9
20260903081509 17 220 9.7 0.0 0.00 0.00 0.00 68 1012.0
20260903080009 17 220 9.7 0.0 0.00 0.00 0.00 68 1012.0
20260903074509 16 220 9.7 0.0 0.00 0.00 0.00 72 1012.1
20260903073009 16 220 8.0 0.0 0.00 0.00 0.00 72 1012.1
20260903071509 15 220 8.0 0.0 0.00 0.00 0.00 76 1012.3
20260903070010 15 200 6.4 0.0 0.00 0.00 0.00 76 1012.3
20260903064509 15 220 6.4 0.0 0.00 0.00 0.00 77 1012.3
20260903063009 15 220 6.4 0.0 0.00 0.00 0.00 77 1012.3
20260903061509 15 220 6.4 0.0 0.00 0.00 0.00 77 1012.6
20260903060009 15 220 8.0 0.0 0.00 0.00 0.00 77 1012.6
20260903054509 14 220 8.0 0.0 0.00 0.00 0.00 78 1012.3
20260903053010 14 220 8.0 0.0 0.00 0.00 0.00 78 1012.3
20260903051509 14 220 8.0 0.0 0.00 0.00 0.00 79 1012.3
20260903050010 14 210 6.4 0.0 0.00 0.00 0.00 79 1012.3
20260903044509 14 210 3.2 0.0 0.00 0.00 0.00 79 1012.4
20260903043010 14 210 3.2 0.0 0.00 0.00 0.00 79 1012.4
20260903041510 14 230 3.2 0.0 0.00 0.00 0.00 81 1012.7
20260903040010 14 230 3.2 0.0 0.00 0.00 0.00 81 1012.7
20260903034509 14 220 1.6 0.0 0.00 0.00 0.00 81 1012.6
20260903033009 14 220 1.6 0.0 0.00 0.00 0.00 81 1012.6
20260903031510 15 220 1.6 0.0 0.00 0.00 0.00 78 1012.7
20260903030009 15 230 3.2 0.0 0.00 0.00 0.00 78 1012.7
20260902204509 14 210 0.0 0.0 0.00 0.00 0.00 81 1012.9
20260902203010 14 210 0.0 0.0 0.00 0.00 0.00 81 1012.9
20260902201509 16 210 0.0 0.0 0.00 0.00 0.00 73 1012.8
20260902200009 16 190 3.2 0.0 0.00 0.00 0.00 73 1012.8
20260902194510 16 190 3.2 0.0 0.00 0.00 0.00 73 1013.0
20260902193010 16 230 3.2 0.0 0.00 0.00 0.00 73 1013.0
20260902191509 18 230 3.2 0.0 0.00 0.00 0.00 67 1013.0
20260902190010 18 240 3.2 0.0 0.00 0.00 0.00 67 1013.0
20260902184511 18 240 3.2 0.0 0.00 0.00 0.00 63 1012.6
20260902183009 18 260 4.8 0.0 0.00 0.00 0.00 63 1012.6
20260902181509 18 290 6.4 0.0 0.00 0.00 0.00 63 1012.7
20260902180009 18 290 6.4 0.0 0.00 0.00 0.00 63 1012.7
20260902174509 20 290 8.0 0.0 0.00 0.00 0.00 60 1012.8
20260902173009 20 290 8.0 0.0 0.00 0.00 0.00 60 1012.8
20260902171511 21 290 8.0 0.0 0.00 0.00 0.00 52 1012.7
20260902170009 21 280 12.9 0.0 0.00 0.00 0.00 52 1012.7
20260902164510 21 230 8.0 0.0 0.00 0.00 0.00 50 1012.7
20260902163009 21 230 8.0 0.0 0.00 0.00 0.00 50 1012.7
20260902161510 22 230 8.0 0.0 0.00 0.00 0.00 47 1012.8
20260902160010 22 250 11.3 0.0 0.00 0.00 0.00 47 1012.8
20260902154509 22 210 8.0 0.0 0.00 0.00 0.00 47 1012.9
20260902153009 22 210 8.0 0.0 0.00 0.00 0.00 47 1012.9
20260902151509 22 210 8.0 0.0 0.00 0.00 0.00 48 1013.2
20260902150010 22 240 4.8 0.0 0.00 0.00 0.00 48 1013.2
20260902144510 21 220 8.0 0.0 0.00 0.00 0.00 50 1013.4
20260902143009 21 220 8.0 0.0 0.00 0.00 0.00 50 1013.4
20260902141510 22 220 8.0 0.0 0.00 0.00 0.00 47 1013.5
20260902140009 22 270 9.7 0.0 0.00 0.00 0.00 47 1013.5
20260902134509 21 270 9.7 0.0 0.00 0.00 0.00 47 1013.7
20260902133009 21 290 12.9 0.0 0.00 0.00 0.00 47 1013.7
20260902131509 21 290 12.9 0.0 0.00 0.00 0.00 49 1013.9
20260902130009 21 290 11.3 0.0 0.00 0.00 0.00 49 1013.9
20260902124509 21 290 11.3 0.0 0.00 0.00 0.00 51 1014.0
20260902123010 21 260 9.7 0.0 0.00 0.00 0.00 51 1014.0
20260902121510 20 260 9.7 0.0 0.00 0.00 0.00 50 1014.3
20260902120009 20 270 11.3 0.0 0.00 0.00 0.00 50 1014.3
20260902114509 20 270 12.9 0.0 0.00 0.00 0.00 52 1014.3